Location: Newton_East
(35.6670°N, 81.2000°W)
Time: 03:50:07
(UTC-04:00)

ISS - Visible Passes

Search period start: 26 April 2017 00:00
Search period end: 06 May 2017 00:00
Orbit: 400 x 409 km, 51.6° (Epoch: 26 April)

Date Brightness Start Highest point End Pass type
(mag) Time Alt. Az. Time Alt. Az. Time Alt. Az.
01 May -1.1 06:00:12 10° SSE 06:02:09 15° SE 06:04:06 10° E visible
03 May -2.8 05:50:34 10° SSW 05:53:38 40° SE 05:56:43 10° ENE visible
04 May -1.6 04:59:56 15° SSE 05:01:23 19° SE 05:03:47 10° E visible
05 May -3.7 05:42:27 13° WSW 05:45:13 68° NW 05:48:28 10° NE visible
